Temperature
26 23 22 23 24 24 25 24 24 24 24 22 20 20 19 19 18 18 18 18 18 19 19 19 19 19 19 19 19 19 18 18 18 18 18 17 17 17 16 16 16 16 15 15
23 23 25 26 26 26 26 25 24 23 23 21 20 20 19 19 18 18 18 18 18 18 19 19 19 19 19 19 19 18 18 18 18 18 18 17 17 16 16 16 15 15 15 15
24 25 27 28 27 26 25 24 24 23 22 21 20 19 19 19 18 18 18 19 19 19 19 19 19 19 19 19 19 19 19 18 18 18 17 17 16 16 16 15 15 15 15 14
25 27 28 27 27 26 24 25 25 23 21 19 20 18 19 18 18 18 18 18 19 19 19 19 19 19 19 19 19 19 19 18 18 18 17 17 16 16 16 15 15 15 14 14
25 26 27 26 27 26 24 24 23 21 19 18 18 18 18 18 18 18 19 19 19 19 19 19 19 20 19 19 19 19 19 18 18 17 17 17 16 16 15 15 15 14 14 14
26 26 26 26 27 26 25 22 20 18 17 18 18 18 18 18 19 19 19 20 20 20 20 20 20 20 20 19 19 19 19 18 18 17 17 17 16 16 15 15 14 14 14 13
24 25 26 26 25 25 24 21 19 19 17 18 18 19 18 20 20 20 20 20 21 21 20 20 20 20 20 20 20 19 19 19 18 18 17 17 16 16 15 15 14 14 13 13
23 23 25 25 25 24 23 21 20 20 19 18 19 19 19 22 22 22 22 21 21 21 21 21 21 21 20 20 20 20 19 19 18 18 17 17 16 16 15 15 14 14 14 13
22 23 25 26 26 25 23 21 20 18 18 18 18 19 20 22 22 22 22 22 21 21 21 21 21 21 21 21 20 20 19 19 18 18 17 16 16 16 15 15 14 14 13 13
22 22 24 25 25 24 23 22 19 18 18 18 19 19 19 21 21 21 21 22 22 22 22 22 22 22 21 21 21 20 20 19 18 18 17 17 16 16 15 15 14 14 14 13
22 22 23 23 23 23 23 22 19 17 18 18 18 19 20 20 21 21 21 23 23 23 23 23 22 22 22 21 21 20 20 19 18 18 17 17 16 16 15 15 15 14 14 13
22 20 21 22 23 23 23 22 19 19 19 18 18 19 22 21 21 21 22 23 24 24 24 23 23 22 22 21 21 20 20 19 19 18 18 17 17 16 16 15 15 14 14 13
23 20 20 21 21 22 22 22 20 18 17 17 18 20 22 21 21 22 23 24 24 24 24 23 23 22 22 22 21 21 20 20 19 18 18 17 17 16 16 15 15 14 14 13
22 19 20 21 21 21 22 23 22 19 18 18 19 21 22 21 21 22 23 24 24 24 24 23 23 23 22 22 21 21 20 20 19 18 18 17 17 16 16 15 15 14 14 14
21 20 21 21 22 22 23 23 23 22 20 20 20 21 21 21 21 22 23 24 23 23 23 23 23 23 22 22 21 21 21 20 19 19 18 18 17 16 16 16 15 15 14 14
19 20 21 22 23 23 23 23 23 23 22 22 21 21 21 21 22 23 23 23 23 23 24 24 23 23 22 22 22 21 21 20 19 19 18 18 17 17 16 16 15 15 14 14
18 19 19 20 21 22 21 22 22 22 21 21 20 20 20 20 20 22 23 24 24 24 24 24 24 23 23 22 22 21 21 20 19 19 18 18 17 17 16 16 15 15 15 14
18 17 17 18 20 21 20 21 22 21 20 19 20 19 19 20 22 23 24 24 24 24 24 24 24 23 23 22 22 21 21 20 19 19 18 18 17 17 16 16 16 15 15 15
17 17 17 17 18 20 21 21 20 20 18 18 18 19 20 21 21 21 23 23 24 24 24 24 24 24 23 22 22 21 20 20 19 19 18 18 17 17 16 16 16 15 15 15
16 16 16 17 19 19 20 20 20 19 18 17 17 17 18 19 18 19 21 23 24 24 24 24 24 23 23 22 21 21 20 20 19 19 19 18 17 17 17 16 16 15 15 15
17 16 16 16 17 18 19 19 19 19 18 17 17 18 18 17 17 19 21 22 22 23 23 23 23 23 22 22 21 20 20 20 19 19 18 17 17 17 16 16 16 15 15 14
17 16 16 15 16 17 18 18 17 16 17 17 18 19 19 18 19 19 20 21 21 22 22 22 22 22 21 21 20 20 20 20 19 18 18 17 17 16 16 16 15 15 15 14
16 16 15 15 15 16 16 17 18 18 17 18 18 19 19 18 18 19 19 20 20 21 21 21 21 20 20 20 19 19 19 18 18 17 17 16 16 16 15 15 15 14 14 14
17 15 14 14 15 15 16 17 18 18 18 18 18 18 18 18 17 18 18 18 19 19 19 19 19 19 19 18 18 18 18 17 17 17 16 16 15 15 15 14 14 14 14 13
17 16 15 15 15 15 16 17 18 18 18 17 17 17 17 17 17 17 17 17 18 18 18 18 18 18 17 17 17 17 17 16 16 16 15 15 15 14 14 14 14 13 13 13
16 16 15 15 15 15 16 18 18 17 17 17 17 17 17 17 16 16 16 16 16 16 16 17 16 16 16 16 16 15 15 15 15 14 14 14 14 13 13 13 13 13 13 13
Wind_Speed
4 1 8 13 12 12 7 3 3 3 3 3 3 2 4 6 6 6 5 6 5 6 6 7 9 10 9 8 9 9 8 7 6 4 4 4 3 2 2 4 7 8 8 8
5 9 18 17 14 9 4 1 0 1 2 3 2 2 3 5 7 8 8 6 6 6 6 7 8 8 9 9 9 9 8 7 7 5 4 3 3 2 2 2 5 7 7 7
9 12 12 8 5 1 1 1 2 3 3 5 3 2 3 3 3 6 8 8 9 11 12 11 11 10 10 10 11 10 8 8 7 6 4 4 4 3 3 2 1 3 6 6
8 9 7 5 4 2 1 1 3 5 5 1 2 2 5 3 3 7 10 11 12 12 12 12 12 12 12 11 10 9 9 8 7 7 6 5 4 3 2 2 2 2 3 4
7 6 5 4 2 2 3 4 5 4 5 3 4 1 6 1 4 7 10 12 13 13 14 14 14 13 13 12 10 9 9 8 7 7 8 7 5 4 3 2 2 1 1 1
7 6 4 5 4 2 6 5 5 5 5 3 2 1 6 5 7 7 10 12 13 13 14 14 13 11 10 10 11 11 10 8 8 8 8 8 8 6 4 2 1 0 1 1
6 8 6 2 2 3 4 5 5 6 6 3 3 2 8 9 7 9 12 13 13 14 14 14 13 13 12 13 12 12 11 9 9 9 8 8 8 7 6 4 3 2 1 0
3 9 6 2 3 2 2 7 6 3 3 3 4 4 9 10 6 8 11 14 14 15 15 15 16 15 14 15 14 13 12 10 10 9 8 8 8 6 5 5 5 4 3 3
4 7 5 3 1 4 2 3 6 6 3 1 4 5 8 5 2 6 10 12 15 16 16 16 16 15 14 14 14 14 13 10 10 10 9 8 8 7 6 5 4 3 3 3
6 4 5 2 4 3 4 5 5 5 4 2 4 5 5 6 5 7 10 13 14 15 16 16 15 15 14 14 12 12 12 12 10 10 9 8 8 8 7 6 5 5 4 4
3 4 3 3 1 3 2 2 4 4 5 6 4 7 8 11 10 10 12 13 15 17 17 16 14 13 13 12 12 12 12 10 10 10 8 8 8 7 7 6 6 5 5 5
2 5 1 4 4 3 3 5 6 4 3 5 5 8 8 11 11 11 12 13 14 16 16 14 13 12 12 13 13 13 12 12 11 10 9 9 8 7 7 6 6 6 6 6
2 5 2 6 7 4 2 3 5 6 4 5 5 7 5 6 9 11 11 12 12 12 12 11 12 13 14 14 13 13 12 12 11 10 10 9 8 8 8 7 7 6 7 6
4 4 6 7 8 6 5 4 3 5 4 5 7 7 5 7 9 9 11 11 11 12 13 13 13 13 13 13 13 13 12 11 11 10 10 10 9 9 9 8 7 7 7 7
4 3 4 6 6 4 5 6 4 4 6 7 8 7 9 10 9 8 8 9 10 11 12 14 14 13 12 12 12 12 11 11 10 10 10 10 9 9 8 8 8 7 7 7
3 3 0 4 5 5 6 7 7 6 3 5 4 5 6 4 3 4 6 9 11 12 13 14 13 13 13 13 13 11 11 11 10 11 11 10 9 8 8 8 8 7 7 7
2 4 2 4 6 4 5 5 4 1 3 2 4 4 1 3 3 6 7 9 11 12 12 13 14 14 14 14 13 13 12 10 10 11 10 10 9 9 9 9 8 8 8 7
5 3 3 1 3 4 7 3 2 5 6 4 1 1 2 3 2 3 4 7 9 10 11 13 13 12 11 11 11 11 10 10 11 10 10 9 9 9 9 8 8 8 7 7
4 6 3 3 3 6 5 2 1 3 3 7 4 4 4 4 6 5 2 2 6 8 9 11 13 12 11 11 11 10 9 9 9 10 10 10 10 9 9 9 9 8 6 7
4 5 4 3 3 5 6 4 4 4 2 6 6 6 6 6 4 3 6 3 1 2 4 6 7 7 9 9 10 10 10 9 10 10 10 9 9 9 10 10 9 7 7 8
2 3 2 2 3 6 4 4 3 4 4 2 2 4 5 3 1 4 6 5 3 1 1 3 5 7 8 8 9 10 9 10 10 8 7 7 8 9 9 8 7 7 7 7
5 3 3 3 2 6 4 2 2 4 2 1 0 3 4 1 2 4 5 6 6 5 4 3 4 3 3 6 9 8 9 9 6 6 6 7 7 6 6 6 7 6 7 8
5 7 6 7 6 4 3 3 2 3 2 2 2 3 4 3 4 5 6 7 7 6 5 3 3 3 3 4 6 7 6 4 4 4 5 5 5 5 5 6 7 6 6 6
3 3 4 2 2 2 2 1 3 3 3 2 3 5 6 6 5 6 6 7 8 8 7 5 5 4 2 1 2 3 2 3 4 3 4 3 4 5 5 5 6 6 7 7
5 4 4 3 3 2 1 2 3 4 5 6 6 7 7 9 8 7 6 7 7 6 6 6 6 4 3 2 1 1 1 2 2 2 2 3 4 5 5 6 7 8 8 10
3 6 7 7 9 7 6 6 6 6 6 7 9 10 8 9 8 8 7 6 6 7 7 7 7 6 5 4 3 3 1 2 2 1 3 3 4 4 5 6 8 12 14 17
Wind_Direction
287 284 259 255 234 226 245 232 257 224 188 121 148 188 192 181 181 175 178 191 187 185 187 165 157 151 140 135 136 139 142 146 134 123 120 119 127 134 135 156 154 146 138 127
320 272 257 257 261 252 231 173 282 24 130 119 138 201 214 196 188 177 177 178 188 180 170 167 157 152 150 149 149 152 155 152 147 145 148 148 142 141 147 146 153 158 153 146
234 258 277 285 277 279 351 170 187 158 92 71 79 337 253 206 187 187 180 184 190 183 177 179 171 167 163 167 168 167 167 158 155 148 123 95 76 65 66 90 140 183 172 164
254 267 292 321 332 47 315 206 127 124 110 36 41 286 275 232 211 199 191 191 195 191 183 180 174 172 176 179 175 168 168 162 157 147 137 137 137 141 163 168 187 219 198 187
265 288 312 315 287 92 158 101 83 94 113 73 16 28 289 246 229 218 204 197 195 191 184 181 179 179 182 180 174 170 166 166 162 153 147 138 136 151 156 141 144 226 279 239
264 284 261 250 265 175 140 90 54 46 66 36 309 171 279 234 219 206 201 199 195 190 186 186 184 181 182 179 174 171 168 171 166 159 154 150 152 154 146 137 138 290 319 334
321 308 296 262 314 354 92 85 21 360 14 295 293 257 255 249 224 197 192 193 189 186 185 186 186 185 185 182 179 175 172 174 173 165 162 160 160 159 161 171 168 166 161 176
282 287 272 255 191 194 158 135 153 201 222 287 307 261 264 271 233 195 184 181 184 186 189 191 192 189 186 185 182 179 178 175 173 169 169 166 162 156 159 164 166 174 184 195
203 260 278 272 231 147 150 164 163 136 127 116 276 282 301 287 207 186 179 178 187 189 191 194 194 191 187 185 184 182 178 175 176 175 171 172 169 165 171 177 173 177 187 188
176 243 291 321 43 28 158 153 97 113 149 199 271 268 246 251 221 204 194 191 193 190 192 195 193 191 189 186 182 176 173 176 177 175 177 178 177 176 176 176 184 191 200 197
177 177 309 19 173 223 137 107 115 127 154 157 216 256 226 217 211 203 205 199 194 191 193 194 192 189 181 175 172 172 172 170 174 176 175 169 178 181 179 183 195 197 202 203
180 129 223 269 270 239 183 181 150 149 214 180 188 258 251 210 210 202 209 206 196 194 192 189 183 175 172 172 172 174 175 176 179 176 173 177 181 180 183 194 203 201 205 212
113 107 65 336 329 325 271 212 167 143 140 179 185 254 264 218 217 207 207 205 197 192 186 177 172 172 174 175 174 176 179 181 179 173 174 179 183 185 194 203 206 205 208 216
126 132 171 201 229 240 258 263 199 145 172 217 223 235 252 228 222 217 207 199 189 183 175 172 174 176 176 176 176 178 183 182 176 174 177 185 193 195 201 204 205 209 212 217
115 163 218 233 238 220 247 272 262 218 204 199 234 228 234 222 212 203 190 177 167 169 171 175 177 178 176 176 178 180 183 181 175 174 183 194 198 198 199 203 209 215 218 223
106 157 280 298 283 281 279 279 282 285 257 234 237 250 259 210 170 167 164 161 165 172 177 179 176 176 179 181 182 182 184 181 173 178 190 194 192 195 200 206 211 215 222 226
148 142 134 277 299 346 294 265 249 299 341 167 181 232 292 85 158 183 182 174 177 178 178 179 181 183 184 184 182 185 186 177 175 183 189 190 191 198 206 209 209 216 220 220
144 132 146 252 10 262 251 289 109 98 37 18 134 215 150 150 200 172 166 173 186 183 181 186 188 189 189 185 182 180 173 173 180 187 194 195 195 204 208 207 212 218 217 219
145 143 140 154 211 265 287 328 17 113 28 357 18 28 17 49 45 19 340 170 180 185 188 191 192 188 183 184 181 168 171 175 183 195 201 202 199 204 206 211 219 220 218 225
56 98 125 151 182 231 258 308 323 104 54 347 16 26 12 50 66 300 308 316 111 149 177 188 183 170 177 186 169 166 176 180 197 204 206 203 200 204 210 217 220 219 219 228
23 41 113 166 216 254 277 306 21 122 218 261 40 58 46 62 185 280 325 351 3 29 136 152 154 169 188 176 162 172 179 199 209 202 200 202 205 209 214 218 222 223 228 236
173 158 172 148 198 252 296 355 144 199 202 200 114 92 92 88 23 20 19 16 8 18 37 86 133 163 162 155 162 176 198 210 196 187 197 208 212 216 219 221 231 232 231 241
191 186 176 182 210 248 254 196 177 144 173 214 169 132 121 91 48 42 35 25 25 36 39 62 105 104 92 134 157 184 215 189 170 184 207 218 220 223 221 220 232 240 236 240
249 143 132 163 237 245 271 105 116 145 178 169 136 117 105 96 75 59 46 34 34 37 40 48 67 73 60 104 166 197 188 156 163 195 221 227 227 240 243 239 236 239 243 246
225 158 139 163 181 134 278 212 154 126 113 94 88 92 96 94 77 69 58 47 41 40 44 53 61 59 36 39 32 21 84 137 165 212 237 247 247 250 259 259 252 249 247 244
229 176 172 195 192 170 198 203 163 130 124 114 100 84 76 82 81 68 55 45 48 45 43 45 43 41 34 37 24 1 11 115 139 253 269 263 263 267 269 275 283 267 260 262
Height
1511 1516 1518 1511 1507 1508 1507 1510 1511 1508 1503 1507 1512 1514 1513 1515 1518 1520 1520 1521 1522 1526 1528 1531 1533 1535 1537 1539 1541 1542 1545 1546 1548 1549 1550 1551 1551 1552 1552 1552 1552 1552 1551 1550
1515 1516 1502 1497 1497 1500 1503 1508 1510 1507 1503 1509 1514 1514 1512 1513 1515 1517 1518 1520 1522 1525 1528 1530 1533 1534 1536 1538 1540 1542 1544 1546 1547 1548 1549 1550 1550 1551 1551 1551 1551 1550 1550 1549
1516 1505 1494 1494 1496 1500 1503 1507 1507 1509 1509 1511 1516 1520 1515 1512 1513 1515 1516 1518 1520 1522 1525 1528 1531 1533 1535 1537 1539 1541 1543 1545 1546 1547 1548 1549 1549 1549 1549 1549 1549 1549 1548 1547
1505 1496 1493 1494 1496 1496 1508 1500 1500 1505 1515 1526 1522 1533 1518 1512 1512 1512 1514 1516 1518 1521 1524 1526 1528 1531 1533 1536 1538 1540 1542 1543 1544 1545 1546 1547 1547 1547 1547 1547 1547 1547 1546 1546
1503 1495 1494 1496 1494 1493 1501 1499 1503 1508 1517 1527 1526 1532 1524 1512 1513 1511 1510 1512 1515 1518 1521 1523 1526 1528 1531 1534 1536 1538 1540 1541 1542 1543 1544 1545 1545 1545 1545 1545 1545 1545 1544 1544
1496 1492 1490 1490 1487 1489 1494 1503 1510 1517 1525 1539 1532 1533 1528 1515 1508 1506 1507 1508 1511 1514 1518 1521 1524 1527 1529 1532 1534 1536 1538 1539 1540 1541 1542 1542 1543 1543 1543 1543 1542 1542 1542 1541
1502 1494 1488 1486 1490 1491 1496 1515 1535 1537 1546 1544 1529 1528 1522 1500 1497 1499 1501 1504 1508 1511 1515 1519 1522 1524 1526 1529 1531 1533 1535 1536 1537 1539 1539 1540 1540 1540 1540 1540 1540 1539 1539 1539
1516 1512 1492 1487 1490 1497 1499 1510 1534 1545 1549 1543 1530 1529 1510 1491 1491 1493 1496 1500 1505 1508 1511 1514 1517 1520 1522 1525 1527 1530 1532 1533 1535 1536 1536 1537 1537 1537 1537 1537 1537 1537 1537 1537
1514 1509 1488 1485 1484 1489 1498 1507 1509 1528 1536 1544 1535 1521 1504 1489 1490 1492 1494 1498 1501 1504 1507 1510 1514 1516 1518 1521 1523 1526 1528 1530 1532 1533 1534 1534 1535 1535 1535 1535 1534 1534 1534 1534
1501 1508 1493 1486 1485 1488 1492 1498 1513 1526 1541 1546 1536 1526 1518 1497 1493 1492 1492 1494 1496 1500 1503 1506 1509 1512 1515 1517 1520 1523 1525 1527 1528 1530 1531 1531 1532 1532 1532 1532 1532 1532 1532 1532
1495 1505 1500 1493 1495 1496 1495 1500 1508 1521 1526 1539 1543 1527 1493 1491 1488 1488 1488 1489 1491 1494 1498 1501 1504 1508 1511 1514 1517 1520 1522 1524 1525 1527 1527 1528 1529 1529 1529 1529 1529 1529 1529 1529
1490 1501 1508 1499 1490 1487 1489 1494 1504 1520 1523 1524 1530 1518 1479 1479 1480 1482 1484 1486 1487 1490 1493 1497 1500 1504 1508 1511 1513 1516 1518 1520 1522 1523 1525 1525 1526 1526 1526 1526 1526 1526 1526 1526
1487 1501 1516 1513 1506 1493 1491 1490 1494 1504 1515 1522 1525 1509 1475 1476 1476 1477 1479 1481 1484 1487 1490 1493 1497 1500 1503 1507 1510 1513 1515 1517 1519 1520 1521 1522 1523 1523 1523 1523 1523 1523 1523 1523
1482 1497 1508 1513 1507 1495 1493 1488 1488 1499 1512 1513 1506 1494 1479 1476 1474 1474 1475 1477 1479 1483 1486 1490 1493 1496 1500 1503 1506 1509 1512 1514 1515 1517 1518 1518 1519 1520 1520 1520 1520 1520 1520 1519
1482 1494 1492 1491 1486 1486 1486 1484 1482 1488 1492 1499 1492 1486 1477 1472 1470 1470 1472 1474 1477 1480 1483 1486 1490 1493 1497 1500 1503 1506 1508 1510 1511 1513 1514 1515 1516 1517 1517 1517 1517 1517 1516 1516
1482 1490 1490 1489 1482 1482 1483 1479 1477 1478 1479 1482 1481 1480 1470 1467 1468 1470 1471 1473 1476 1478 1481 1484 1487 1490 1493 1497 1500 1502 1504 1506 1508 1509 1510 1512 1512 1513 1513 1513 1513 1513 1512 1512
1485 1490 1496 1498 1486 1485 1492 1480 1477 1479 1477 1477 1483 1480 1471 1470 1469 1470 1470 1472 1474 1476 1478 1482 1484 1487 1490 1493 1496 1498 1500 1502 1504 1505 1506 1507 1508 1509 1509 1509 1509 1509 1508 1508
1484 1490 1498 1500 1496 1504 1489 1473 1472 1477 1480 1476 1474 1472 1470 1469 1469 1470 1471 1472 1474 1475 1477 1479 1482 1484 1487 1490 1492 1495 1497 1498 1500 1501 1502 1503 1504 1505 1505 1505 1505 1504 1504 1503
1476 1486 1496 1503 1503 1495 1481 1475 1475 1479 1485 1481 1475 1472 1469 1468 1469 1471 1472 1473 1473 1474 1475 1477 1479 1481 1484 1486 1489 1491 1493 1494 1496 1497 1498 1499 1500 1500 1500 1500 1500 1500 1499 1498
1478 1482 1493 1500 1502 1502 1484 1473 1471 1475 1486 1481 1477 1474 1472 1470 1478 1477 1475 1474 1473 1473 1474 1476 1477 1479 1481 1483 1485 1487 1488 1490 1491 1492 1493 1495 1495 1496 1495 1495 1495 1495 1494 1493
1487 1490 1494 1499 1500 1490 1477 1472 1472 1487 1487 1478 1476 1474 1475 1476 1479 1477 1475 1473 1473 1473 1473 1474 1475 1476 1478 1480 1482 1483 1485 1486 1487 1489 1490 1490 1491 1491 1491 1491 1490 1490 1489 1487
1487 1491 1494 1497 1500 1494 1474 1473 1477 1480 1475 1475 1475 1474 1476 1477 1476 1476 1475 1473 1471 1471 1471 1473 1474 1474 1476 1477 1479 1480 1481 1482 1484 1485 1485 1486 1486 1486 1486 1486 1485 1484 1483 1482
1479 1480 1483 1486 1486 1477 1474 1473 1473 1474 1475 1476 1476 1476 1476 1477 1476 1475 1474 1473 1472 1471 1471 1472 1473 1474 1475 1476 1477 1478 1479 1480 1481 1481 1481 1481 1481 1481 1481 1480 1479 1478 1477 1476
1472 1472 1477 1480 1477 1475 1474 1472 1471 1473 1475 1477 1477 1477 1476 1476 1476 1475 1475 1474 1472 1472 1472 1472 1473 1473 1474 1475 1475 1476 1477 1477 1477 1477 1477 1477 1477 1476 1475 1474 1473 1472 1471 1469
1467 1469 1474 1476 1474 1474 1474 1473 1472 1474 1477 1477 1477 1477 1477 1477 1477 1476 1475 1475 1474 1474 1474 1473 1473 1473 1474 1474 1474 1475 1475 1474 1474 1474 1473 1473 1472 1471 1470 1469 1467 1465 1464 1463
1461 1463 1468 1470 1467 1469 1471 1471 1472 1475 1477 1478 1478 1479 1479 1479 1478 1478 1477 1476 1476 1476 1475 1475 1474 1474 1473 1473 1473 1473 1472 1472 1471 1470 1469 1468 1467 1465 1464 1462 1460 1458 1457 1455